GW1024 Weather Reports


time (UTC)temp
C
wind
direction
speed
KPH
gust
KPH
rain 1hr
cm
rain 24hr
cm
rain mn
cm
humidity
%
barometer
mb
20260507154532 12 38 1.6 11.3 0.00 0.03 0.00 74 1012.1
20260507153035 12 0 1.6 14.5 0.00 0.03 0.00 82 1011.6
20260507151533 12 0 0.0 3.2 0.00 0.03 0.00 87 1011.8
20260507150037 12 26 0.0 4.8 0.00 0.03 0.00 89 1012.1
20260507144544 12 78 1.6 9.7 0.00 0.03 0.00 87 1011.9
20260507143034 12 0 0.0 1.6 0.00 0.03 0.00 93 1012.0
20260507141532 12 0 0.0 1.6 0.00 0.03 0.00 91 1012.3
20260507140034 12 76 0.0 3.2 0.00 0.03 0.00 91 1012.3
20260507134536 12 0 1.6 8.0 0.00 0.05 0.00 89 1012.3
20260507133034 12 63 1.6 6.4 0.00 0.05 0.00 88 1012.1
20260507131533 13 76 1.6 6.4 0.00 0.05 0.00 87 1011.9
20260507130040 13 22 3.2 14.5 0.00 0.05 0.00 86 1012.1
20260507124540 12 305 3.2 14.5 0.00 0.13 0.00 87 1012.0
20260507123043 12 15 3.2 12.9 0.00 0.13 0.00 87 1012.1
20260507121538 12 51 1.6 6.4 0.00 0.13 0.00 87 1011.9
20260507120034 12 0 0.0 6.4 0.00 0.13 0.00 88 1011.5
20260507114534 12 41 3.2 6.4 0.00 0.13 0.00 88 1011.6
20260507113031 12 29 1.6 8.0 0.00 0.13 0.00 89 1011.4
20260507111543 12 327 1.6 6.4 0.00 0.13 0.00 90 1011.2
20260507110038 11 355 1.6 4.8 0.00 0.13 0.00 91 1011.4
20260507104535 11 0 0.0 4.8 0.00 0.13 0.00 91 1011.2
20260507103034 11 0 0.0 1.6 0.00 0.13 0.00 91 1011.4
20260507101533 11 0 0.0 1.6 0.00 0.13 0.00 91 1010.8
20260507100036 11 0 0.0 1.6 0.00 0.13 0.00 90 1010.8
20260507094540 12 0 0.0 6.4 0.00 0.13 0.00 90 1011.3
20260507093042 12 0 1.6 6.4 0.00 0.13 0.00 90 1011.3
20260507091534 12 326 1.6 6.4 0.00 0.13 0.00 91 1011.1
20260507090042 12 111 1.6 16.1 0.00 0.13 0.00 90 1011.0
20260507084540 13 53 3.2 12.9 0.00 0.13 0.00 88 1010.9
20260507083039 13 17 3.2 11.3 0.00 0.13 0.00 89 1010.7
20260507081537 13 5 3.2 12.9 0.00 0.13 0.00 89 1010.8
20260507080035 13 349 3.2 12.9 0.00 0.13 0.00 89 1010.6
20260507074534 13 329 1.6 12.9 0.00 0.13 0.00 90 1010.3
20260507073035 13 34 3.2 14.5 0.00 0.13 0.00 90 1010.2
20260507071535 13 24 3.2 16.1 0.00 0.13 0.00 91 1010.3
20260507070036 14 25 4.8 17.7 0.00 0.13 0.00 92 1010.2
20260507064534 15 315 4.8 17.7 0.00 0.13 0.00 92 1010.0
20260507063033 16 13 6.4 14.5 0.00 0.13 0.00 93 1009.5
20260507061537 16 37 0.0 6.4 0.00 0.13 0.00 92 1008.6
20260507060036 17 36 1.6 11.3 0.00 0.13 0.00 91 1008.8
20260507054539 17 32 3.2 8.0 0.00 0.13 0.00 93 1008.7
20260507053032 17 0 0.0 1.6 0.00 0.13 0.00 93 1008.9
20260507051541 18 0 0.0 1.6 0.00 0.13 0.00 92 1009.2
20260507050041 18 0 0.0 1.6 0.00 0.13 0.00 91 1009.4
20260507044535 18 0 0.0 1.6 0.00 0.13 0.00 89 1009.4
20260507043042 18 0 0.0 1.6 0.00 0.13 0.00 89 1009.3
20260507041547 18 0 0.0 3.2 0.00 0.13 0.00 88 1009.1
20260507040032 18 0 0.0 3.2 0.00 0.13 0.00 88 1009.1
20260507034537 18 217 0.0 1.6 0.00 0.13 0.13 87 1009.3
20260507033037 18 223 0.0 4.8 0.00 0.13 0.13 86 1009.1
20260507031534 18 0 0.0 1.6 0.00 0.13 0.13 86 1009.2
20260507030042 18 0 0.0 4.8 0.00 0.13 0.13 86 1009.1
20260507024532 18 238 1.6 4.8 0.00 0.13 0.13 86 1008.5
20260507023033 18 238 1.6 8.0 0.03 0.13 0.13 86 1008.6
20260507021535 18 197 1.6 6.4 0.03 0.13 0.13 86 1008.7
20260507020035 18 212 0.0 3.2 0.03 0.13 0.13 85 1009.1
20260507014548 18 135 3.2 6.4 0.03 0.13 0.13 85 1009.1
20260507013051 18 0 0.0 3.2 0.00 0.10 0.10 85 1009.3
20260507011540 18 198 0.0 3.2 0.00 0.10 0.10 85 1009.2
20260507010035 18 217 1.6 6.4 0.00 0.10 0.10 85 1008.8
20260507004530 18 211 0.0 3.2 0.00 0.10 0.10 84 1008.7
20260507003034 19 184 1.6 8.0 0.00 0.10 0.10 83 1008.8
20260507001537 19 194 0.0 6.4 0.00 0.10 0.10 82 1009.0
20260507000034 20 338 0.0 9.7 0.00 0.10 0.10 81 1009.0
20260506234530 20 196 1.6 9.7 0.00 0.10 0.10 80 1008.8
20260506233043 20 216 1.6 9.7 0.00 0.10 0.10 79 1008.5
20260506231529 20 227 1.6 11.3 0.00 0.10 0.10 78 1008.6
20260506230034 21 98 4.8 11.3 0.00 0.10 0.10 78 1008.5
20260506224534 21 324 1.6 19.3 0.00 0.10 0.10 78 1008.6
20260506223030 21 190 1.6 8.0 0.00 0.10 0.10 79 1008.5
20260506221530 21 224 3.2 9.7 0.00 0.10 0.10 78 1008.6
20260506220030 21 190 3.2 16.1 0.00 0.10 0.10 78 1008.5
20260506214535 21 235 3.2 16.1 0.00 0.10 0.10 78 1008.5
20260506213036 21 230 4.8 14.5 0.00 0.10 0.10 77 1008.8
20260506211531 21 247 3.2 17.7 0.00 0.10 0.10 75 1009.0
20260506210041 21 0 0.0 17.7 0.00 0.10 0.10 76 1008.7
20260506204536 21 240 3.2 14.5 0.00 0.10 0.10 76 1008.7
20260506203042 21 163 3.2 17.7 0.00 0.10 0.10 77 1008.6
20260506201534 20 229 6.4 16.1 0.00 0.10 0.10 79 1008.6
20260506200042 19 178 1.6 9.7 0.00 0.10 0.10 81 1008.9
20260506194539 19 249 4.8 14.5 0.00 0.10 0.10 81 1008.5
20260506193037 19 120 4.8 17.7 0.00 0.10 0.10 81 1009.0
20260506191535 19 177 6.4 19.3 0.00 0.10 0.10 81 1009.0
20260506190035 18 158 6.4 19.3 0.00 0.10 0.10 82 1009.6
20260506184536 18 231 4.8 12.9 0.00 0.10 0.10 82 1009.3
20260506183037 18 155 3.2 19.3 0.00 0.10 0.10 83 1009.6
20260506181537 18 0 1.6 12.9 0.00 0.10 0.10 84 1009.8
20260506180045 18 166 3.2 14.5 0.00 0.10 0.10 83 1010.0
20260506174531 18 188 4.8 14.5 0.00 0.10 0.10 83 1009.9
20260506173032 18 229 1.6 11.3 0.00 0.10 0.10 86 1010.0
20260506171546 18 82 1.6 8.0 0.00 0.10 0.10 86 1010.2
20260506170037 18 242 3.2 17.7 0.00 0.10 0.10 86 1010.3
20260506164533 17 190 4.8 19.3 0.00 0.10 0.10 88 1010.3
20260506163044 17 205 4.8 14.5 0.00 0.10 0.10 89 1010.6
20260506161548 17 179 4.8 16.1 0.00 0.10 0.10 91 1010.7
20260506160032 16 196 4.8 12.9 0.00 0.10 0.10 92 1010.5